Location: Melbourne
(37.8666°S, 145.1333°E)
Time: 00:21:46
(UTC+11:00)

Daily predictions for brighter satellites

Satellite Brightness Start Highest point End
(mag) Time Altitude Azimuth Time Altitude Azimuth Time Altitude Azimuth
ATLAS 5 CENTAUR R/B 4.2 00:10:59 18° ESE 00:10:59 18° ESE 00:13:01 10° ESE
MOS 1-B Rocket 4.1 00:15:26 10° SSE 00:20:26 66° SE 00:20:26 66° SE
Cosmos 1943 Rocket 2.6 00:22:38 57° WSW 00:22:41 57° WSW 00:28:20 10° SSE
CZ-2C R/B 3.1 00:28:59 55° SW 00:28:59 55° SW 00:33:15 10° SSW
H-2A R/B 2.9 00:25:35 10° S 00:30:02 42° WSW 00:30:02 42° WSW
Cosmos 2181 Rocket 4.1 00:36:50 68° SE 00:36:50 68° SE 00:42:32 10° S
H-2A R/B 4.2 00:35:23 10° SSW 00:38:12 21° WSW 00:38:12 21° WSW
Cosmos 1656 Rocket 4.3 00:51:43 51° S 00:51:43 51° S 00:55:51 10° SSE
Cosmos 2227 Rocket 4.1 00:49:54 10° S 00:54:06 21° SE 00:54:48 20° ESE
USA 215 3.5 01:25:12 10° SE 01:31:45 65° SW 01:32:25 61° WSW
Terra 4.3 01:33:42 10° SSW 01:36:10 14° WSW 01:36:13 14° WSW
ATLAS 5 CENTAUR R/B 2.9 01:52:31 54° SW 01:52:31 54° SW 01:58:22 10° SSE
Cosmos 1980 Rocket 4.2 01:57:01 18° E 01:57:01 18° E 01:59:45 10° SE
CZ-4C R/B 2.8 01:58:56 81° WSW 01:59:02 81° WSW 02:06:14 10° SSE
Nadezhda 3 Rocket 4.2 02:00:48 68° S 02:00:48 68° S 02:06:12 10° S
CZ-2C R/B 4.2 01:55:13 10° SSE 01:58:11 37° SSE 01:58:11 37° SSE
Cosmos 1697 Rocket 3.9 02:06:54 34° ESE 02:06:54 34° ESE 02:10:42 10° SE
CZ-2D R/B 3.7 02:08:14 26° E 02:08:56 27° ESE 02:13:29 10° S
Resurs 1-4 Rocket 3.4 02:17:55 32° ESE 02:18:15 32° ESE 02:23:00 10° S
Cosmos 1934 Rocket 4.3 02:14:46 10° S 02:20:40 59° ESE 02:20:40 59° ESE
ARIANE 5 R/B 3.7 02:22:01 35° ESE 02:22:01 35° ESE 02:26:23 10° S
Cosmos 2297 Rocket 2.7 02:19:01 10° SSW 02:23:33 57° S 02:23:33 57° S
Cosmos 1656 4.1 02:27:25 56° SSE 02:27:25 56° SSE 02:31:44 10° SSE
Cosmos 1821 Rocket 4.0 02:29:01 10° S 02:34:37 72° SSW 02:34:37 72° SSW
ATLAS 3B R/B 2.5 02:37:41 76° SW 02:37:41 76° SW 02:44:20 10° SSE
Cosmos 2227 Rocket 3.2 02:32:57 10° SSW 02:36:35 38° SW 02:36:35 38° SW
USA 238 DEB 3.7 02:40:31 70° NE 02:40:37 70° ENE 02:47:46 10° SE
USA 238 3.7 02:40:38 69° ENE 02:40:43 69° ENE 02:47:50 10° SE
Cosmos 1605 Rocket 4.1 02:42:45 10° S 02:49:13 70° E 02:49:39 68° ENE
CZ-4B R/B 4.3 02:47:16 10° S 02:48:18 16° SSW 02:48:18 16° SSW
Cosmos 1607 4.2 03:00:39 58° WSW 03:01:02 59° SW 03:07:24 10° SSE
NOSS 3-2 (A) 4.4 03:03:20 46° NNE 03:04:49 51° ENE 03:12:11 10° SE
COSMOS 2455 2.7 03:06:20 85° ENE 03:06:20 85° ENE 03:12:21 10° SSE
ASTEX 1 4.3 03:03:49 10° SSE 03:08:38 42° E 03:08:49 42° E
Cosmos 2098 Rocket 4.5 03:06:04 10° S 03:12:19 47° ESE 03:13:40 40° ENE
Lacrosse 5 2.1 03:15:00 70° SSE 03:15:00 70° SSE 03:19:36 10° SE
CZ-2D R/B 4.3 03:21:27 49° ESE 03:21:27 49° ESE 03:25:30 10° S
SL-16 R/B 2.9 03:29:37 40° NE 03:30:36 44° ENE 03:36:00 10° SE
BREEZE-M DEB 4.5 03:34:11 33° NE 03:34:11 33° NE 03:39:57 10° ESE
Cosmos 2100 Rocket 4.2 03:30:42 10° S 03:37:07 71° E 03:39:34 39° NNE
Cosmos 1953 3.6 03:34:44 10° S 03:38:32 36° ESE 03:39:09 34° E
Cosmos 1441 Rocket 4.5 03:39:53 36° SSW 03:39:53 36° SSW 03:42:36 10° S
Cosmos 2360 Rocket 4.3 03:36:26 14° NE 03:39:14 19° E 03:43:10 10° SE
Cosmos 1980 Rocket 2.5 03:38:48 52° W 03:39:17 54° WSW 03:44:56 10° SSE
ADEOS Rocket 3.0 03:39:15 44° NNE 03:41:35 90° W 03:47:41 10° SSW
Cosmos 1153 Rocket 4.4 03:37:11 10° SSW 03:43:25 64° W 03:44:18 58° NW
Cosmos 1766 4.3 03:40:59 10° SSW 03:43:42 40° SSW 03:43:42 40° SSW
Cosmos 1842 3.8 03:46:52 57° S 03:46:52 57° S 03:50:11 10° S
Cosmos 1544 3.9 03:44:39 10° S 03:48:18 49° ESE 03:48:18 49° ESE
CZ-2D R/B 3.0 03:49:34 35° WSW 03:49:34 35° WSW 03:53:53 10° SSW
Cosmos 1697 Rocket 4.0 03:48:38 26° WSW 03:49:30 27° WSW 03:54:16 10° S
CZ-4B R/B 4.2 03:47:35 12° NE 03:52:32 47° ESE 03:58:00 10° S
Cosmos 1459 Rocket 3.8 03:49:46 10° S 03:55:55 88° W 03:58:12 41° N
Resurs 1-4 Rocket 3.3 03:59:00 28° WSW 03:59:00 28° WSW 04:02:42 10° SW
IRAS Rocket 4.1 03:56:46 44° N 03:58:39 85° WNW 04:04:14 10° SSW
ARIANE 5 R/B 4.0 04:02:22 22° WSW 04:02:22 22° WSW 04:05:04 10° SW
Cosmos 2227 4.1 03:55:48 10° SSW 04:01:30 67° WNW 04:02:54 49° NNW
Cosmos 1825 Rocket 4.0 04:02:03 48° WSW 04:02:03 48° WSW 04:06:14 10° S
Cosmos 968 Rocket 3.5 03:59:15 10° SSW 04:04:21 55° WNW 04:04:35 54° WNW
Cosmos 1437 Rocket 3.4 04:02:15 10° SSW 04:05:41 47° WSW 04:05:41 47° WSW
Cosmos 1758 Rocket 3.6 04:08:47 61° WNW 04:09:08 63° W 04:13:41 10° S
Cosmos 2322 Rocket 2.1 04:08:41 49° NNW 04:10:18 81° WSW 04:16:02 10° SSE
Okean O Rocket 1.7 04:08:59 37° NNE 04:10:39 74° ESE 04:15:05 10° S
Cosmos 1725 Rocket 4.5 04:04:50 10° S 04:11:01 58° E 04:17:08 10° NNE
MOS 1 Rocket 4.1 04:10:01 13° NNE 04:14:51 63° ESE 04:20:15 10° S
Cosmos 1953 Rocket 3.8 04:15:19 47° W 04:15:26 47° W 04:19:43 10° S
OTV 4 2.2 04:17:50 26° E 04:17:50 26° E 04:19:13 10° E
SL-24 R/B 4.5 04:12:18 10° S 04:16:34 49° WSW 04:17:10 46° W
Cosmos 1758 3.3 04:13:51 10° SSW 04:17:57 64° W 04:18:09 63° WNW
Cosmos 1805 3.5 04:14:25 10° SSW 04:18:07 54° W 04:18:07 54° W
SL-08 R/B 3.2 04:13:37 10° S 04:18:20 73° WSW 04:19:34 49° NW
Meteor 1-4 Rocket 4.0 04:17:05 10° S 04:20:27 36° ESE 04:23:16 14° NE
Cosmos 1733 4.2 04:16:44 10° S 04:20:34 46° E 04:23:11 18° NNE
Cosmos-2242 3.1 04:17:55 10° S 04:22:18 79° E 04:24:23 31° NNE
SL-16 R/B 3.2 04:16:18 10° SSE 04:22:21 51° E 04:27:17 15° N
COBE Rocket 3.7 04:21:07 40° N 04:22:48 73° W 04:27:39 10° SSW
Cosmos 1802 Rocket 4.1 04:18:18 10° SSW 04:24:38 62° W 04:27:55 29° NNW
PSLV R/B 3.8 04:25:39 58° NW 04:26:04 62° W 04:29:58 10° SSW
Cosmos 2344 4.2 04:14:11 10° SW 04:26:08 68° WNW 04:34:54 10° NNE
Meteor 2-17 Rocket 4.4 04:20:32 10° S 04:26:44 87° W 04:31:29 17° N
OAO 3 Rocket 3.4 04:28:37 43° NNW 04:28:42 43° NNW 04:33:09 10° NE
SeaSat 1 2.6 04:28:01 36° NNW 04:29:36 50° WNW 04:34:27 10° SW
Cosmos 2061 Rocket 4.3 04:23:53 10° SSW 04:30:04 50° W 04:32:51 31° NNW
Cosmos 2173 Rocket 4.4 04:24:22 10° SSW 04:30:30 47° W 04:33:10 31° NW
SL-08 R/B 4.4 04:24:22 10° S 04:30:48 80° W 04:35:39 18° N
ADEOS II 2.1 04:29:26 10° NNE 04:34:39 83° ESE 04:40:01 10° S
ERS-2 2.1 04:37:07 43° NNW 04:38:10 65° WNW 04:41:57 10° SSW
Cosmos 1378 4.3 04:38:07 16° NNE 04:40:50 42° E 04:44:30 10° SSE
Cosmos 2285 Rocket 4.0 04:44:35 25° NNW 04:48:33 72° WSW 04:55:01 10° SSE
Cosmos 2016 Rocket 4.3 04:43:25 10° SSW 04:49:14 45° W 04:52:55 22° NNW
USA 161 2.5 04:46:36 10° SSE 04:49:25 44° E 04:51:04 21° NNE
UNK 3.7 04:45:05 10° SSE 04:49:47 87° WSW 04:52:47 22° NNW
Cosmos 2233 Rocket 4.1 04:45:54 10° S 04:52:08 77° E 04:58:21 10° N
COSMOS 2428 3.9 04:48:51 10° N 04:54:03 38° ENE 04:59:19 10° SE
Lacrosse 5 3.9 04:54:27 10° WSW 04:58:06 19° SSW 05:01:46 10° SSE
Landsat 4 4.1 04:54:33 10° SSE 04:58:20 63° E 05:01:22 15° N
Atlas Centaur 2 3.0 04:58:12 22° NNW 04:58:54 22° NNW 05:03:17 10° NE
CZ-4B R/B 3.6 04:57:38 27° NW 04:59:03 35° W 05:02:48 10° SSW
Cosmos 2263 Rocket 2.1 04:54:21 10° SSW 05:00:00 71° WNW 05:05:36 10° NNE
NOSS 3-3 (A) 4.1 04:54:29 10° SW 05:00:48 53° WNW 05:06:43 10° N
NOSS 3-3 (C) 4.1 04:54:36 10° SW 05:00:56 53° WNW 05:06:51 10° N
PSLV R/B 3.6 04:58:40 17° N 05:01:44 52° W 05:05:56 10° SSW
Exosat Rocket 4.2 04:57:46 15° NNW 05:04:30 85° WSW 05:10:17 10° SSE
Cosmos 1470 3.4 05:02:53 10° SSW 05:06:36 37° W 05:08:38 22° NW
NOSS 2-1 (D) 4.3 05:00:47 10° SSW 05:07:52 89° ESE 05:13:01 10° NNE
GEOS 3 Rocket 3.8 05:02:53 10° SSE 05:08:05 63° SW 05:11:50 19° NW
NOSS 2-1 (C) 4.4 05:01:17 10° SSW 05:08:24 88° ESE 05:13:34 10° NNE
Meteor 1-31 Rocket 3.1 05:05:02 10° NNE 05:08:57 70° ESE 05:12:55 10° S
CZ-3B DEB 4.3 04:47:25 10° SW 05:09:07 68° WNW 05:18:03 10° NNE
Meteor 2-5 Rocket 3.8 05:06:51 16° NNW 05:11:13 59° WSW 05:16:47 10° S
CENTAUR R/B 3.0 05:06:42 15° NNW 05:13:42 86° ENE 05:21:01 10° SSE
Cosmos 2322 3.7 05:09:53 17° NNW 05:14:25 72° WSW 05:20:09 10° SSE
Cosmos 1953 4.2 05:12:27 10° SW 05:14:35 14° W 05:14:51 14° W
SL-16 R/B 3.5 05:11:30 15° WNW 05:14:52 26° WSW 05:19:35 10° S
Abrixas rocket 3.5 05:16:33 22° NW 05:16:40 22° NW 05:19:19 10° N
Radarsat Rocket 4.5 05:12:32 10° NNE 05:19:33 75° ESE 05:25:50 10° SSW
Cosmos 2360 Rocket 2.5 05:18:14 16° NW 05:22:44 54° WSW 05:28:21 10° SSE
NOSS 2-1 (E) 4.2 05:21:34 10° SW 05:28:18 70° WNW 05:33:16 10° NNE
Cosmos 1842 Rocket 4.1 05:25:03 10° SSW 05:29:08 39° W 05:33:12 10° NNW
CZ-4B R/B 4.5 05:29:29 12° NW 05:33:17 22° W 05:37:39 10° SW
Cosmos 1707 4.3 05:31:11 14° WNW 05:33:24 21° WSW 05:36:29 10° SSW
SEDSat Delta rocket 4.5 05:33:57 13° WNW 05:36:33 21° NNW 05:40:04 10° NNE
Meteor 1-24 Rocket 3.7 05:31:56 10° NNW 05:37:12 58° W 05:42:31 10° S
Abrixas 2.4 05:36:54 14° WNW 05:39:22 83° SSW 05:42:20 10° SE
Meteor 2-1 Rocket 4.2 05:37:01 10° SSW 05:42:35 70° W 05:48:05 10° N
NOAA 6 4.0 05:38:18 10° N 05:43:29 70° WNW 05:48:42 10° SSW
Okean-O 3.3 05:40:05 10° NNW 05:44:09 35° W 05:48:18 10° SSW
Cosmos 2219 Rocket 2.8 05:40:21 10° N 05:45:50 58° ENE 05:51:26 10° SSE
SJ-6F 4.5 05:41:46 10° N 05:45:55 63° W 05:50:06 10° SSW
Cosmos 1814 Rocket 4.1 05:42:32 10° NNW 05:47:37 62° WSW 05:52:46 10° SSE
Cosmos 1271 Rocket 3.7 05:44:58 10° SSW 05:48:30 30° W 05:51:58 10° NNW
Cosmos 1898 Rocket 3.6 05:44:02 10° SSW 05:49:10 58° WNW 05:54:16 10° N
Cosmos 1076 Rocket 3.5 05:46:30 10° N 05:50:53 77° W 05:55:18 10° S
Cosmos 1464 Rocket 4.1 05:45:25 10° S 05:51:53 81° W 05:58:17 10° N
OTV 4 1.1 05:49:43 10° W 05:52:17 32° NNW 05:54:52 10° NE
Cosmos 841 Rocket 3.6 05:49:31 10° NNW 05:54:41 82° ENE 05:59:54 10° SSE
Cosmos 2322 Rocket 4.3 05:53:04 10° WSW 05:55:17 12° SW 05:57:30 10° SSW
Cosmos 2333 Rocket 3.0 05:50:29 10° N 05:56:05 55° ENE 06:01:45 10° SSE
Cosmos 44 Rocket 3.3 05:52:57 10° NNW 05:57:39 80° WSW 06:02:30 10° SSE
Cosmos 389 Rocket 2.7 05:56:20 10° S 06:00:00 84° ESE 06:03:40 10° N
CSL-04 Rocket 4.1 05:56:27 10° NNE 06:01:48 71° ESE 06:07:17 10° S
